Location: Unspecified
(49.2170°N, 0.0000°E)
Time: 14:02:42
(UTC+00:00)

A-11 Canister half - Pass Details

Date: 23 June 2019
Orbit: 1526 x 1683 km, 47.3° (Epoch: 17 July)

Event Time Altitude Azimuth Distance (km) Brightness Sun altitude
Rises 08:35:30 0° 280° (W) 4,698 11.1 42.3°
Reaches altitude 10° 08:38:34 10° 278° (W) 3,705 10.7 42.8°
Maximum altitude 08:47:47 69° 198° (SSW) 1,614 9.9 44.2°
Drops below altitude 10° 08:57:01 10° 118° (ESE) 3,713 12.0 45.7°
Sets 09:00:06 0° 116° (ESE) 4,708 12.3 46.1°
